User: anonymous
Location: Unspecified
(0.0000°N, 0.0000°E)
Time: 12:06:35
(UTC+02:00)
Language:

Ariane 42L R/B - Orbit

View from above orbital plane
View from above orbital plane
View from above satellite
View from above satellite

Ground track
Ground track

The orbit data is extracted from the following two-line orbital elements,

1 26299U 00020B   14263.58634146  .00003516  00000-0  10929-2 0   598
2 26299 007.5032 071.1577 6056465 000.1356 012.1690 03.93215910178572
Epoch (UTC): 20 September 2014 14:04:19
Eccentricity: 0.6056465
inclination: 7.5032°
perigee height: 308 km
apogee height: 20846 km
right ascension of ascending node: 71.1577°
argument of perigee: 0.1356°
revolutions per day: 3.93215910
mean anomaly at epoch: 12.1690°
orbit number at epoch: 17857

The dashed part of the orbit path shows where the satellite is in the earth's shadow,  

DLR